This demonstration page uses our WeatherBlox Daily Observations layout. Learn more.

Left ArrowRight Arrow

41.55636, -103.73856

Hourly Observations for December 25, 2021

Temp ( °F °C ) Dew Point ( °F °C ) Humidity (%) Winds ( mph kmh ) Pressure ( in mb ) Visibility ( mi km ) Precip ( " mm )
12:58 am 00:58 Clear 37 3 21 -6.2 51 51 WSW 17 28 29.54 1000 10 16 0.00 0.00
1:58 am 01:58 Mostly Cloudy 41 5.1 23 -5.2 48 48 W 24 39 29.58 1002 10 16 0.00 0.00
2:58 am 02:58 Clear 40 4.3 20 -6.8 45 45 W 16 26 29.61 1003 10 16 0.00 0.00
3:58 am 03:58 Clear 36 2.2 22 -5.7 56 56 W 8 13 29.65 1004 10 16 0.00 0.00
4:58 am 04:58 Mostly Clear 37 3 23 -4.9 57 57 W 25 41 29.69 1005 10 16 0.00 0.00
5:58 am 05:58 Mostly Cloudy 39 3.7 26 -3.4 60 60 W 17 28 29.72 1006 10 16 0.00 0.00
6:58 am 06:58 Mostly Cloudy 38 3.1 26 -3.3 63 63 W 15 24 29.76 1008 10 16 0.00 0.00
7:58 am 07:58 Mostly Cloudy 39 3.9 22 -5.4 51 51 W 16 26 29.79 1009 10 16 0.00 0.00
8:58 am 08:58 Mostly Cloudy 39 3.8 21 -6 49 49 W 21 33 29.83 1010 10 16 0.00 0.00
9:58 am 09:58 Cloudy 39 3.8 22 -5.3 52 52 W 20 31 29.86 1011 10 16 0.00 0.00
10:58 am 10:58 Mostly Cloudy 42 5.8 18 -7.8 37 37 W 18 30 29.85 1011 10 16 0.00 0.00
11:58 am 11:58 Mostly Cloudy 45 7.4 13 -10.7 27 27 W 23 37 29.82 1010 10 16 0.00 0.00
12:58 pm 12:58 Partly Cloudy 46 7.5 13 -10.5 27 27 W 23 37 29.79 1009 10 16 0.00 0.00
1:58 pm 13:58 Sunny 45 7.3 16 -9.1 30 30 NW 23 37 29.78 1008 10 16 0.00 0.00
2:58 pm 14:58 Sunny 45 7.3 16 -9.1 30 30 WNW 12 19 29.81 1009 10 16 0.00 0.00
3:58 pm 15:58 Sunny 41 5.1 17 -8.1 38 38 NNW 13 20 29.84 1011 10 16 0.00 0.00
4:58 pm 16:58 Clear 36 2.2 19 -7.1 51 51 NW 6 9 29.86 1011 10 16 0.00 0.00
5:58 pm 17:58 Mostly Cloudy 36 2.1 20 -6.9 52 52 S 3 6 29.87 1012 10 16 0.00 0.00
6:58 pm 18:58 Clear 34 1.2 21 -6.3 58 58 SSE 9 15 29.88 1012 10 16 0.00 0.00
7:58 pm 19:58 Clear 34 1.1 23 -5.2 63 63 S 6 9 29.87 1012 10 16 0.00 0.00
8:58 pm 20:58 Clear 34 1.1 24 -4.7 66 66 S 22 35 29.84 1011 10 16 0.00 0.00
9:58 pm 21:58 Clear 34 0.9 24 -4.3 69 69 S 15 24 29.83 1010 10 16 0.00 0.00
10:58 pm 22:58 Mostly Clear 33 0.4 24 -4.6 69 69 Calm 29.80 1009 10 16 0.00 0.00
11:58 pm 23:58 Partly Cloudy 34 1.3 22 -5.3 62 62 S 20 31 29.75 1007 10 16 0.00 0.00

Powered by AerisWeather